Change the Weather History Date:

Tuesday, April 29, 2014

  Actual Average (KPAH) Record (KPAH)
Temperature  
Mean Temperature 60 °F 62 °F  
Max Temperature 66 °F 74 °F 89 °F (1987)
Min Temperature 53 °F 51 °F 33 °F (2008)
Degree Days  
Heating Degree Days 6 5  
Month to date heating degree days 240  
Since 1 July heating degree days 4059  
Cooling Degree Days 0 2  
Month to date cooling degree days 36  
Year to date cooling degree days 43  
Growing Degree Days 10 (Base 50)    
Moisture  
Dew Point 48 °F    
Average Humidity 68    
Maximum Humidity 82    
Minimum Humidity 49    
Precipitation  
Precipitation 0.00 in 0.17 in 4.13 in (1984)
Month to date precipitation 4.59  
Year to date precipitation 16.11  
Snow  
Snow 0.00 in 0.00 in - ()
Month to date snowfall 0.0  
Since 1 July snowfall 9.1  
Snow Depth -    
Sea Level Pressure  
Sea Level Pressure 29.69 in    
Wind  
Wind Speed 9 mph (SW)    
Max Wind Speed 22 mph    
Max Gust Speed 34 mph    
Visibility 10 miles    
Events Rain    
T = Trace of Precipitation, MM = Missing Value Source: NWS Daily Summary

Daily Weather History Graph

Daily Weather History Graph

Search for Another Location

Airport or City:

Trip Planner

Search our weather history database for the weather conditions in past years. The results will help you decide how hot, cold, wet, or windy it might be!

Date:

Astronomy

Apr. 29, 2014 Rise Set
Actual Time 6:02 AM CDT 7:41 PM CDT
Civil Twilight 5:35 AM CDT 8:08 PM CDT
Nautical Twilight 5:01 AM CDT 8:42 PM CDT
Astronomical Twilight 4:26 AM CDT 9:17 PM CDT
Moon 6:20 AM CDT (4/29) 8:20 PM CDT (4/29)
Length of Visible Light 14h 33m
Length of Day
13h 38m
New Moon, 0% of the Moon is Illuminated
Apr 29
New Moon
May 6
First Quarter
May 14
Full
May 21
Last Quarter
May 28
New

Hourly Weather History & Observations

Time (CDT) Temp. Dew Point Humidity Pressure Visibility Wind Dir Wind Speed Gust Speed Precip Events Conditions
12:15 AM 64.4 °F 51.8 °F 64% 29.60 in 10.0 mi WSW 11.5 mph 17.3 mph N/A   Clear
12:35 AM 62.6 °F 50.0 °F 63% 29.60 in 10.0 mi WSW 9.2 mph - N/A   Clear
12:55 AM 62.6 °F 50.0 °F 63% 29.60 in 10.0 mi WSW 8.1 mph - N/A   Clear
1:15 AM 60.8 °F 50.0 °F 68% 29.60 in 10.0 mi WSW 8.1 mph - N/A   Clear
1:35 AM 59.0 °F 48.2 °F 67% 29.60 in 10.0 mi SW 6.9 mph - N/A   Clear
1:55 AM 59.0 °F 48.2 °F 67% 29.60 in 10.0 mi SW 4.6 mph - N/A   Clear
2:15 AM 57.2 °F 48.2 °F 72% 29.59 in 10.0 mi SW 5.8 mph - N/A   Clear
2:35 AM 59.0 °F 46.4 °F 63% 29.60 in 10.0 mi SSW 4.6 mph - N/A   Clear
2:55 AM 59.0 °F 46.4 °F 63% 29.61 in 10.0 mi SSW 10.4 mph - N/A   Clear
3:15 AM 59.0 °F 46.4 °F 63% 29.62 in 10.0 mi SSW 6.9 mph - N/A   Clear
3:35 AM 59.0 °F 46.4 °F 63% 29.61 in 10.0 mi SW 5.8 mph - N/A   Clear
3:55 AM 55.4 °F 46.4 °F 72% 29.61 in 10.0 mi SW 5.8 mph - N/A   Clear
4:15 AM 55.4 °F 46.4 °F 72% 29.61 in 10.0 mi SSW 8.1 mph - N/A   Clear
4:35 AM 55.4 °F 46.4 °F 72% 29.61 in 10.0 mi SSW 6.9 mph - N/A   Clear
4:55 AM 55.4 °F 46.4 °F 72% 29.60 in 10.0 mi South 5.8 mph - N/A   Clear
5:15 AM 53.6 °F 46.4 °F 77% 29.60 in 10.0 mi South 4.6 mph - N/A   Clear
5:35 AM 53.6 °F 46.4 °F 77% 29.60 in 10.0 mi South 6.9 mph - N/A   Clear
5:55 AM 53.6 °F 46.4 °F 77% 29.60 in 10.0 mi South 4.6 mph - N/A   Clear
6:15 AM 53.6 °F 46.4 °F 77% 29.62 in 10.0 mi South 5.8 mph - N/A   Clear
6:35 AM 53.6 °F 46.4 °F 77% 29.62 in 10.0 mi South 6.9 mph - N/A   Clear
6:55 AM 53.6 °F 46.4 °F 77% 29.62 in 10.0 mi SW 5.8 mph - N/A   Clear
7:15 AM 55.4 °F 46.4 °F 72% 29.63 in 10.0 mi SSW 6.9 mph - N/A   Clear
7:35 AM 57.2 °F 46.4 °F 67% 29.64 in 10.0 mi SSW 5.8 mph - N/A   Clear
7:55 AM 59.0 °F 46.4 °F 63% 29.64 in 10.0 mi SSW 5.8 mph - N/A   Clear
8:15 AM 60.8 °F 46.4 °F 59% 29.65 in 10.0 mi SSW 5.8 mph - N/A   Clear
8:35 AM 62.6 °F 46.4 °F 55% 29.66 in 10.0 mi SSW 8.1 mph - N/A   Clear
8:55 AM 64.4 °F 46.4 °F 52% 29.65 in 10.0 mi SSW 6.9 mph - N/A   Clear
9:15 AM 64.4 °F 46.4 °F 52% 29.66 in 10.0 mi SW 10.4 mph 18.4 mph N/A   Clear
9:35 AM 64.4 °F 46.4 °F 52% 29.65 in 10.0 mi SW 11.5 mph - N/A   Clear
9:55 AM 66.2 °F 46.4 °F 49% 29.65 in 10.0 mi SW 11.5 mph 16.1 mph N/A   Clear
10:15 AM 64.4 °F 46.4 °F 52% 29.66 in 10.0 mi SW 12.7 mph - N/A   Clear
10:35 AM 64.4 °F 46.4 °F 52% 29.68 in 10.0 mi SW 11.5 mph - N/A   Scattered Clouds
10:55 AM 64.4 °F 46.4 °F 52% 29.70 in 10.0 mi SW 12.7 mph - N/A   Mostly Cloudy
11:35 AM 62.6 °F 46.4 °F 55% 29.73 in 10.0 mi SW 11.5 mph 20.7 mph N/A Rain Light Rain
11:55 AM 62.6 °F 44.6 °F 52% 29.74 in 10.0 mi SW 15.0 mph 21.9 mph N/A   Light Drizzle
12:15 PM 60.8 °F 46.4 °F 59% 29.76 in 10.0 mi SW 11.5 mph 21.9 mph N/A Rain Light Rain
12:35 PM 60.8 °F 48.2 °F 63% 29.76 in 10.0 mi SW 17.3 mph 23.0 mph N/A Rain Light Rain
12:55 PM 59.0 °F 50.0 °F 72% 29.77 in 10.0 mi SSW 12.7 mph 18.4 mph N/A Rain Light Rain
1:15 PM 59.0 °F 50.0 °F 72% 29.78 in 10.0 mi SW 16.1 mph 24.2 mph N/A Rain Light Rain
1:35 PM 57.2 °F 50.0 °F 77% 29.78 in 10.0 mi SW 19.6 mph 28.8 mph N/A Rain Light Rain
1:55 PM 57.2 °F 50.0 °F 77% 29.79 in 10.0 mi SW 17.3 mph 25.3 mph N/A Rain Light Rain
2:15 PM 57.2 °F 48.2 °F 72% 29.78 in 10.0 mi WSW 15.0 mph 28.8 mph N/A Rain Light Rain
2:35 PM 55.4 °F 48.2 °F 77% 29.79 in 10.0 mi WSW 19.6 mph 28.8 mph N/A Rain Rain
2:55 PM 55.4 °F 50.0 °F 82% 29.78 in 10.0 mi WSW 19.6 mph 33.4 mph N/A Rain Light Rain
3:15 PM 55.4 °F 50.0 °F 82% 29.78 in 10.0 mi WSW 21.9 mph 34.5 mph N/A Rain Light Rain
3:35 PM 57.2 °F 50.0 °F 77% 29.76 in 10.0 mi WSW 21.9 mph 31.1 mph N/A Rain Light Rain
3:55 PM 59.0 °F 50.0 °F 72% 29.73 in 10.0 mi SW 11.5 mph 18.4 mph N/A Rain Light Rain
4:15 PM 59.0 °F 50.0 °F 72% 29.70 in 10.0 mi SSW 12.7 mph 17.3 mph N/A   Scattered Clouds
4:35 PM 60.8 °F 50.0 °F 68% 29.69 in 10.0 mi SSW 12.7 mph 18.4 mph N/A   Clear
4:55 PM 62.6 °F 48.2 °F 59% 29.69 in 10.0 mi SW 11.5 mph 20.7 mph N/A   Clear
5:15 PM 62.6 °F 50.0 °F 63% 29.70 in 10.0 mi Calm Calm - N/A   Clear
5:35 PM 62.6 °F 50.0 °F 63% 29.69 in 10.0 mi WSW 9.2 mph - N/A   Clear
5:55 PM 62.6 °F 50.0 °F 63% 29.69 in 10.0 mi SW 10.4 mph - N/A   Clear
6:15 PM 64.4 °F 50.0 °F 59% 29.69 in 10.0 mi SW 11.5 mph 17.3 mph N/A   Clear
6:35 PM 64.4 °F 50.0 °F 59% 29.69 in 10.0 mi SW 6.9 mph 16.1 mph N/A   Clear
6:55 PM 62.6 °F 50.0 °F 63% 29.70 in 10.0 mi SSW 8.1 mph - N/A   Clear
7:15 PM 62.6 °F 50.0 °F 63% 29.70 in 10.0 mi SSW 6.9 mph - N/A   Clear
7:35 PM 62.6 °F 50.0 °F 63% 29.71 in 10.0 mi South 9.2 mph - N/A   Clear
7:55 PM 60.8 °F 50.0 °F 68% 29.72 in 10.0 mi South 9.2 mph - N/A   Scattered Clouds
8:15 PM 59.0 °F 50.0 °F 72% 29.73 in 10.0 mi South 6.9 mph - N/A   Mostly Cloudy
8:35 PM 59.0 °F 50.0 °F 72% 29.74 in 10.0 mi South 6.9 mph - N/A   Mostly Cloudy
8:55 PM 59.0 °F 50.0 °F 72% 29.75 in 10.0 mi South 6.9 mph - N/A   Scattered Clouds
9:15 PM 59.0 °F 50.0 °F 72% 29.75 in 10.0 mi SSW 5.8 mph - N/A   Clear
9:35 PM 59.0 °F 50.0 °F 72% 29.76 in 10.0 mi SSW 5.8 mph - N/A   Clear
9:55 PM 55.4 °F 50.0 °F 82% 29.76 in 10.0 mi Calm Calm - N/A   Clear
10:15 PM 55.4 °F 50.0 °F 82% 29.77 in 10.0 mi SSW 3.5 mph - N/A   Clear
10:35 PM 55.4 °F 50.0 °F 82% 29.77 in 10.0 mi South 4.6 mph - N/A   Clear
10:55 PM 55.4 °F 50.0 °F 82% 29.78 in 10.0 mi SW 5.8 mph - N/A   Clear
11:15 PM 55.4 °F 50.0 °F 82% 29.78 in 10.0 mi SW 4.6 mph - N/A   Clear
11:35 PM 55.4 °F 50.0 °F 82% 29.79 in 10.0 mi Calm Calm - N/A   Clear
11:55 PM 55.4 °F 50.0 °F 82% 29.80 in 10.0 mi Calm Calm - N/A   Clear